Tracking 35334 objects as of 13-Sep-2026
HD Live streaming from Space Station
objects crossing your sky now

COSMOS 1044


COSMOS 1044 is no longer on orbit


NORAD ID: 11065
Int'l Code: 1978-097A
Launch date: October 17, 1978
Source: Commonwealth of Independent States (former USSR) (CIS)
Launch site: PLESETSK MISSILE AND SPACE COMPLEX (PKMTR)
Decay date: 1978-10-30
Your satellite tracking list
Your tracking list is empty




NASA's NSSDC Master Catalog

Two Line Element Set (TLE):
1 11065U 78097  A 78302.77014237  .00261656 +00000-0 +00000-0 0  9991
2 11065 062.8188 152.3073 0057652 072.8833 287.6558 16.15123940001964
Source of the keplerian elements: AFSPC